Starlink 35303

operational
NORAD ID: 65860 Int'l Des: 2025-223 Owner: SPXS Country: US Constellation: starlink
NOTLE

关于 Starlink 35303

正在加载描述...

实时位置

正在加载3D地球...

即将过境

高度历史

Altitude vs Time

uPlot chart will show altitude changes over time

两行轨道根数

1 65860U 25223G 25341.33364809 .00058647 00000-0 19765-2 0 9990
2 65860 53.1623 3.2952 0001471 90.4074 269.7095 15.30202167 10067
Epoch: Dec 7, 2025 • Age: 12 hours

当前状态

高度 477.5 km
速度 7.63 km/s
星下点 -8.10°S, 173.16°E
发射日期 Oct 3, 2025
运行时间 0.1 years
类型 internet

技术详情

分类 Payload
质量 575.00 kg
干质量 530.00 kg
总质量 575.00 kg
长度 0.30 m
直径 4.10 m
跨度 29.00 m
形状 Box + pan
制造商 SPXS
平台类型 Starlink V2MO
阶段状态 In Orbit
所有者/国家 SPXS/US

大型星座

Loading constellations...